Location: Unspecified
(0.0000°N, 0.0000°E)
Time: 02:14:24
(UTC+00:00)

Vanguard 1 Rocket - Pass Details

Date: 10 December 2017
Orbit: 656 x 4222 km, 34.3° (Epoch: 20 January)

Event Time Altitude Azimuth Distance (km) Brightness Sun altitude
Rises 03:50:12 0° 291° (WNW) 8,391 - -28.0°
Reaches altitude 10° 03:57:01 10° 285° (WNW) 7,133 - -26.5°
Exits shadow 04:06:00 25° 271° (W) 5,410 10.8 -24.4°
Maximum altitude 04:17:12 41° 222° (SW) 3,674 10.2 -21.9°
Drops below altitude 10° 04:28:59 10° 154° (SSE) 4,258 11.5 -19.2°
Sets 04:31:56 0° 146° (SE) 4,868 12.1 -18.6°
